Погода в Рязани

Погода в Рязани : погода сейчас, прогноз погоды и архив. Всё, что Вы хотите узнать о погоде в Рязани!

Хотите узнать прогноз погоды в Рязани? Тогда Вам сюда: Погода в Рязани

Поиск расширенной информации на нашем сайте:

Другие новости

Новости СМИ2

Главная страница сайта

Новости сайта

02.10.2013

Напоминаем, что на нашем новом сайте вы можете получить высокодетализированные прогнозы погоды по пунктам России, СНГ и мира (включающие важные для авиации метеовеличины, такие как направление и скорость ветра, видимость, явления погоды, количество и форма облачности, нижняя и верхняя граница облачности), а также ознакомиться с разнообразными материалами по авиационной метеорологии и подборкой полезных ссылок на эту тему.

Сайт Метеоцентр.Азия посвящён разработке технологий оптимизации авиаметеорологического обслуживания, включая проектирование и перспективное создание нескольких автоматизированных авиаметеорологических систем:
- система выпуска высокодетальных прогностических карт явлений погоды для нижнего воздушного пространства по России и ближнему зарубежью;
- система верификации прогнозов TAF (выпускаемых синоптиками официальных АМСГ РФ и ближнего зарубежья) и AUTOTAF (выпускаемых сайтом Метеоцентр.Азия) - выявление ошибок, онлайн-сопоставление с фактической погодой METAR, автоматическое внесение коррективов в прогнозы при резком отклонении фактической погоды от прогноза, подсчёт оправдываемости прогнозов по элементам и в целом;
- система обработки, анализа и отображения авиаметеорологической информации для применения провайдерами метеорологической информации.

Рекомендуем: Информация medicine на нашем сайте.

Погода в Рязани - сегодня

Время (UTC), дата Ветер
(°,м/с) 
Видим.   Явления Облачность Т
(°С)
Тd
(°С)
f(%) Тe
(°С)
Pmin
(гПа)
dP
(гПа)
Po
(мм)
O2
(г/м3)
Тmin Tmax R s Состояние
почвы
00 22.05.17 010 (С) 20000 м    10/0 средняя 
[Ac und]
+6.5 +2 73 +6  1010.1  743  292           
03 22.05.17 020 (С) 20000 м    10/0 средняя, верхняя 
[Ac trans|Ci fib]
+5.9 +1.5 73 +6  1010.5  0.3  743  293  +5.9        влажная 
06 22.05.17 350 (С) 20000 м    ясно 
+10.9 +0.5 49 +11  1011.7  0.9  745  288           
09 22.05.17 010 (С) 20000 м    4/3 600 м верхняя 
[Cu hum|Ci fib]
+12 -2.5 36 +12  1011.9  0.2  745  288           
12 22.05.17 010 (С) 3{10}  20000 м    8/6 600 м верхняя 
[Cu hum|Ci fib]
+13.2 -2.3 34 +13  1011.8  745  287           
15 22.05.17 360 (С) 20000 м    8/5 600 м верхняя 
[Cu med, cong|Ci fib]
+12.1 -3.3 34 +12  1011.8  0.1  745  288    +14.7       
18 22.05.17 тихо ()   20000 м    6/0 средняя 
[Ac As]
+7.7 +1.9 67 +8  1012.9  0.8  745  292           
21 22.05.17 180 (Ю) 20000 м    ясно 
+3.2 +1.8 91 +4  1013.7  0.5  746  297           
00 23.05.17 тихо ()   10 км    ясно 
+1.7 +0.7 93 +2  1013.8  746  298           
03 23.05.17 тихо ()   20000 м    6/0 средняя 
[Ac trans]
+8.5 +0.8 58 +9  1013.8  0.4  746  291  +0.9        сухая 
06 23.05.17 220 (ЮЗ) 20000 м    8/0 средняя 
[Ac trans]
+13.3 -0.8 38 +15  1013.7  0.3  746  287           
09 23.05.17 200 (Ю) 20000 м    9/0 средняя 
[Ac trans]
+16.4 +0.1 33 +17  1012.8  -0.8  746  283           
12 23.05.17 210 (ЮЗ) 20000 м  {ливн. осадки}  10/3 600 м средняя 
[Sc|Ac trans]
+17.2 +10.3 64 +20  1011.9  -0.9  745  281           
15 23.05.17 270 (З) 20000 м    8/0 средняя 
[Ac trans]
+19.6 +3.7 35 +21  1011  -0.7  745  279    +20.1  0.0     
18 23.05.17 140 (ЮВ) 20000 м    3/0 средняя 
[Ac trans]
+14.3 +5.8 57 +15  1012  0.7  745  284           
21 23.05.17 180 (Ю) 20000 м    ясно 
+11.3 +7.9 80 +12  1012.6  0.3  745  287           
00 24.05.17 190 (Ю) 20000 м    ясно 
+9.4 +8.1 92 +10  1012.6  0.1  745  289           
03 24.05.17 200 (Ю) 20000 м    ясно 
+11.9 +8.9 82 +13  1012.8  0.3  746  286  +9.1        сухая 
06 24.05.17 280 (З) 20000 м    ясно 
+19.7 +7.9 46 +21  1012.9  0.6  746  279           
09 24.05.17 290 (З) 20000 м    3/3 600 м 
[Cu hum]
+23.7 +4.6 29 +24  1012.6  746  276           
12 24.05.17 260 (З) 20000 м    5/5 600 м 
[Cu hum]
+24.3 +4.3 27 +24  1012.3  -0.3  746  275           
15 24.05.17 260 (З) 20000 м    5/1 600 м верхняя 
[Cu hum|Ci fib]
+24.3 +3.1 25 +24  1011.7  -0.6  745  275    +24.7       
18 24.05.17 290 (З) 20000 м    3/3 600 м 
[Sc diur, vesp]
+17.5 +7.2 51 +18  1013.2  1.1  746  281           
21 24.05.17 220 (ЮЗ) 20000 м    8/0 средняя 
[Ac trans]
+14.4 +10.5 77 +18  1013.7  0.3  746  284           
00 25.05.17 190 (Ю) 20000 м    ясно 
+12.2 +10 86 +14  1014  0.2  746  286           
Время (UTC), дата Ветер
(°,м/с) 
Видим.   Явления Облачность Т
(°С)
Тd
(°С)
f(%) Тe
(°С)
Pmin
(гПа)
dP
(гПа)
Po
(мм)
O2
(г/м3)
Тmin Tmax R s Состояние
почвы

Для получения пояснительной информации подведите курсор к названию столбца.

ПОГОДА в Рязани - архив

Всё, что Вы хотите узнать о погоде в Рязани - удобно и подробно!

Выберите нужную дату (начиная с 1 января 2015* года) и нажмите кнопку "Найти".
Будут отображены архивные сводки погоды по пункту Рязань, начиная с указанной даты.


Отображать данные в формате CSV (для использования в таблицах Excel)


Внимание! Наш архив погоды предназначен исключительно для личного некоммерческого использования в познавательных целях. Если Вам необходимы официальные справки о состоянии погоды (для производственных, юридических, коммерческих и т.п. целей), обращайтесь в органы Росгидромета.

*Примечание: данная дата относится к архиву по метеостанциям СССР (Россия, СНГ, Балтия).
Архив по метеостанциям Зарубежной Европы и Азии (кроме Китая) хранится 10 дней, по другим регионам земного шара (Китай, Африка, Америка, Австралия, Океания) - 1 день.

Рязань - район местоположения метеостанции


Название, широта, долгота, высота метеостанции:
Рязань 54.6°ш. 39.7°д. 158 м над ур. моря [Российская Федерация]

Дополнительная информация

В oтличие oт бoльшинства пoгoдных сайтoв мы публикуем пoдрoбную метеoинфoрмацию в детальнoм прoфессиoнальнoм фoрмате.

Характеристики температуры и влажнoсти вoздуха измеряются на высoте 2 м в тени вдали oт зданий и деревьев.
Скoрoсть ветра измеряется на высoте 10 м (на урoвне рoста челoвека скoрoсть ветра ниже в 1.5-2 раза). Если метеoстанция нахoдится в гoрoде или в лесу, тo скoрoсть ветра занижена на 2-4 м/с пo сравнению с oткрытым местoм. Скoрoсть ветра над акватoриями крупных рек и oзёр, а также на вершинах хoлмoв на 2-5 м/с выше, чем в oбычных услoвиях.
Атмoсфернoе давление в разных тoчках местнoсти мoжет значительнo oтличаться oт давления на метеoстанции, в зависимoсти oт услoвий рельефа (при пoдъёме на 10 м давление пoнижается примернo на 1 мм рт.ст.).